Location: Poughquag
(41.6090°N, 73.6820°W)
Time: 10:09:40
(UTC-05:00)

Vanguard 1 - Pass Details

Date: 30 November 2023
Orbit: 653 x 3826 km, 34.3° (Epoch: 25 February)

Event Time Altitude Azimuth Distance (km) Brightness Sun altitude
Rises 02:02:02 0° 285° (WNW) 7,967 - -54.7°
Reaches altitude 10° 02:08:54 10° 276° (W) 6,811 - -53.5°
Maximum altitude 02:24:59 28° 228° (SW) 4,615 - -50.7°
Drops below altitude 10° 02:36:37 10° 177° (S) 4,841 - -48.6°
Exits shadow 02:37:34 - 174° (S) 4,958 13.5 -48.4°
Sets 02:40:30 0° 165° (SSE) 5,401 13.9 -47.9°
